ISARA (43050 NORAD) Tracking and Keplerian Element Data

This shows tracking and keplerian element data for the satellite.

Feedback or suggestion? Click here.




ElementValue
Catalog43050
NameISARA
Epoch Orbit21377
Epoch Day262.10644594
Epoch Year2021
RAAN291.846
Inclination51.6301
Eccentricity0.0003125
Argument of Perigee23.9395
Mean Anonmoly336.1743
Mean Motion15.61771243
Decay Rate0.00028186
L11 43050U 17071P 21262.10644594 .00028186 00000-0 32423-3 0 9996
L22 43050 51.6301 291.8460 0003125 23.9395 336.1743 15.61771243213776

Live tracking and technical data element details for ISARA (NORAD 43050). ISARA can be tracked NOW for your location showing map with azimuth and elevation plus other details from your city location.

Track the satellite on the map from your city or location and see movement details for azimuth, elevation, latitude, longitude, range, height, and movement on the map or in text.







IsCatalogInMostPopularTable: catalog: 43050, numindb: 582
Update: records affected: 1



GetName: 43050 ISARA

Hit Count: updated at: Fri, 24 Sep 2021 17:56:59 GMT